Wainwright, AK

2:28 PM AKDT on March 28, 2017 (GMT -0800)
Wainwright

Weather History for PAWI - April, 2013

Change the Weather History Date:

Thursday, April 18, 2013

  Actual Average (PABR) Record (PABR)
Temperature  
Mean Temperature -6 °F -  
Max Temperature 3 °F 6 °F 32 °F (1951)
Min Temperature -14 °F -6 °F -27 °F (1984)
Degree Days  
Heating Degree Days 70    
Moisture  
Dew Point -10 °F    
Average Humidity 74    
Maximum Humidity 79    
Minimum Humidity 69    
Precipitation  
Precipitation 0.00 in - - ()
Sea Level Pressure  
Sea Level Pressure 30.66 in    
Wind  
Wind Speed 9 mph (ENE)    
Max Wind Speed 12 mph    
Max Gust Speed -    
Visibility 10 miles    
Events      
Averages and records for this station are not official NWS values.
T = Trace of Precipitation, MM = Missing Value Source: NWS Daily Summary

Daily Weather History Graph

Daily Weather History Graph

Search for Another Location

Airport or City:

Trip Planner

Search our weather history database for the weather conditions in past years. The results will help you decide how hot, cold, wet, or windy it might be!

Date:

Astronomy

Apr. 18, 2013 Rise Set
Actual Time 6:12 AM AKDT 11:09 PM AKDT
Civil Twilight 4:35 AM AKDT 12:49 AM AKDT
Nautical Twilight Sun does not rise Sun does not rise
Astronomical Twilight Sun does not rise Sun does not rise
Moon 11:54 AM AKDT (4/18) 6:17 AM AKDT (4/18)
Length of Visible Light 20h 14m
Length of Day
16h 57m
First Quarter, 53% of the Moon is Illuminated
Apr 18
First Quarter
Apr 25
Full
May 2
Last Quarter
May 9
New
May 17
First Quarter

Hourly Weather History & Observations

Time (AKDT) Temp. Windchill Dew Point Humidity Pressure Visibility Wind Dir Wind Speed Gust Speed Precip Events Conditions
12:53 AM -8.0 °F -25.0 °F -13.0 °F 79% 30.74 in 10.0 mi NE 9.2 mph - N/A   Clear
1:53 AM -9.9 °F -27.5 °F -16.1 °F 74% 30.73 in 10.0 mi ENE 9.2 mph - N/A   Clear
2:53 AM -9.9 °F -26.3 °F -16.1 °F 74% 30.73 in 10.0 mi NE 8.1 mph - N/A   Clear
3:53 AM -11.0 °F -28.8 °F -17.0 °F 75% 30.71 in 10.0 mi ENE 9.2 mph - N/A   Clear
4:53 AM -13.0 °F -28.6 °F -18.9 °F 75% 30.71 in 10.0 mi NE 6.9 mph - N/A   Clear
5:53 AM -14.1 °F -31.3 °F -18.9 °F 79% 30.70 in 10.0 mi ENE 8.1 mph - N/A   Clear
6:53 AM -14.1 °F -29.9 °F -18.9 °F 79% 30.69 in 10.0 mi East 6.9 mph - N/A   Clear
7:53 AM -11.0 °F -29.9 °F -16.1 °F 78% 30.69 in 9.0 mi East 10.4 mph - N/A   Clear
8:53 AM -9.9 °F -26.3 °F -15.0 °F 78% 30.68 in 9.0 mi East 8.1 mph - N/A   Clear
9:53 AM -8.0 °F -25.0 °F -14.1 °F 75% 30.69 in 10.0 mi ENE 9.2 mph - N/A   Clear
10:53 AM -5.1 °F -22.5 °F -11.9 °F 72% 30.68 in 10.0 mi ENE 10.4 mph - N/A   Clear
11:53 AM -2.9 °F -18.8 °F -9.0 °F 75% 30.68 in 10.0 mi ENE 9.2 mph - N/A   Clear
12:53 PM -0.0 °F -15.3 °F -8.0 °F 69% 30.66 in 10.0 mi ENE 9.2 mph - N/A   Clear
1:53 PM 1.9 °F -14.7 °F -5.1 °F 72% 30.65 in 10.0 mi East 11.5 mph - N/A   Clear
2:28 PM 1.4 °F -14.5 °F -5.8 °F 72% 30.65 in 1.5 mi East 10.4 mph - N/A   Haze
2:43 PM 1.4 °F -14.5 °F -5.8 °F 72% 30.65 in 10.0 mi East 10.4 mph - N/A   Clear
2:53 PM 1.9 °F -12.9 °F -5.1 °F 72% 30.65 in 10.0 mi East 9.2 mph - N/A   Clear
3:53 PM 3.0 °F -12.5 °F -4.0 °F 73% 30.64 in 10.0 mi ENE 10.4 mph - N/A   Clear
4:53 PM 3.9 °F -10.4 °F -2.9 °F 73% 30.63 in 10.0 mi ENE 9.2 mph - N/A   Clear
5:53 PM 3.0 °F -10.5 °F -2.9 °F 76% 30.62 in 10.0 mi ENE 8.1 mph - N/A   Clear
6:53 PM 3.0 °F -9.3 °F -2.9 °F 76% 30.61 in 10.0 mi ENE 6.9 mph - N/A   Unknown
7:53 PM 3.0 °F -8.0 °F -5.1 °F 69% 30.60 in 10.0 mi NE 5.8 mph - N/A   Clear
8:53 PM 1.0 °F -11.7 °F -6.0 °F 72% 30.60 in 10.0 mi ENE 6.9 mph - N/A   Clear
9:53 PM -0.9 °F -12.7 °F -8.0 °F 72% 30.59 in 10.0 mi ENE 5.8 mph - N/A   Clear
10:53 PM -4.0 °F -16.3 °F -9.9 °F 76% 30.59 in 10.0 mi East 5.8 mph - N/A   Clear
11:53 PM -6.0 °F -21.5 °F -11.0 °F 79% 30.58 in 10.0 mi East 8.1 mph - N/A   Clear